Location: Gisborne
(38.6530°S, 178.0040°E)
Time: 23:22:05
(UTC+13:00)

ISS - Pass Details

Date: 29 January 2019
Orbit: 403 x 411 km, 51.6° (Epoch: 16 February)

Event Time Altitude Azimuth Distance (km) Brightness Sun altitude
Exits shadow 04:42:47 20° 11° (N) 1,016 -2.1 -16.1°
Maximum altitude 04:44:04 26° 47° (NE) 856 -2.1 -15.9°
Drops below altitude 10° 04:46:55 10° 106° (ESE) 1,492 0.1 -15.5°
Sets 04:49:13 0° 118° (ESE) 2,359 1.8 -15.2°
